Other Public Products
Issued by NWS Grand Forks, ND

Home | Current Version | Previous Version | Text Only | Print | Product List | Glossary On
Versions: 1 2 3 4 5 6 7 8 9 10 11 12 13 14 15 16 17 18 19 20 21 22 23 24 25 26 27 28 29 30 31 32 33 34 35 36 37 38 39 40 41 42 43 44 45 46 47 48 49 50
000
FPUS83 KFGF 222031
OPUFGF
PRAIRIE TO PINES WEATHER ROUNDUP
NATIONAL WEATHER SERVICE EASTERN NORTH DAKOTA/GRAND FORKS ND
300 PM CDT SUN APR 22 2018

 **SATELLITE DATA USED TO AUGMENT SKY COVER AT AUTOMATED STATIONS**
 *****  WEATHER ACROSS EASTERN NORTH DAKOTA  *****

CITY           SKY/WX    TMP DP  RH WIND       PRES   REMARKS
GRAND FORKS    PTSUNNY   59  44  57 SW23      30.16F
GRND FORKS AFB FAIR      62  42  48 S18G24    30.15F
GRND FORKS NWS   N/A     60  41  49 SW20      30.13F
BUXTON           N/A    N/A N/A N/A CALM        N/A
DEVILS LAKE    PTSUNNY   60  41  49 W12       30.13F
FARGO          FAIR      64  40  41 S16G24    30.19F
WAHPETON ARPT  FAIR      61  36  39 S16G22    30.22F
$$

 *****  WEATHER ACROSS CENTRAL AND WESTERN NORTH DAKOTA  *****

CITY           SKY/WX    TMP DP  RH WIND       PRES   REMARKS
JAMESTOWN      FAIR      63  38  39 S17G28    30.15F
BISMARCK       FAIR      68  40  35 S10       30.10F
MINOT          CLOUDY    62  27  26 W12       30.10F
MINOT AFB      FAIR      62  31  32 W9        30.09S
GARRISON         N/A     59  37  44 CALM      30.11F
WILLISTON      FAIR      64  28  25 VRB7      30.11F
DICKINSON      FAIR      66  21  18 N6        30.09F
HETTINGER      FAIR      66  33  29 MISG      30.10F
$$

 *****  OTHER OBSERVATIONS NORTHEAST NORTH DAKOTA  *****

CITY           SKY/WX    TMP DP  RH WIND       PRES   REMARKS
WALHALLA         N/A     59  41  51 SW9G17    30.10F
LANGDON        MOCLDY    59  43  55 W14       30.12S
CAVALIER         N/A     59  43  55 SW13G20   30.11F
GRAFTON        FAIR      64  39  39 SW18      30.14F
CANDO          CLOUDY    61  36  39 VRB7      30.13F
FORT TOTTEN      N/A     61  40  45 SW8       29.95S
ROLLA          MOCLDY    57  39  51 S6G13     30.11S
RUGBY          FAIR      63  34  34 W10       30.10F
 ***** THE ABOVE OBSERVATIONS ARE NON NWS ARE NOT QUALITY
        CONTROLLED AND MAY MIS-REPORT RAIN FOR SNOW...
$$

 *****  OTHER OBSERVATIONS SOUTHEAST NORTH DAKOTA *****

CITY           SKY/WX    TMP DP  RH WIND       PRES   REMARKS
COOPERSTOWN    FAIR      59  45  58 S17G24    30.16F
VALLEY CITY    FAIR      61  43  51 S22G29    30.19F
OAKES            N/A     63  36  36 S23G32    30.19F
GWINNER          N/A     63  39  42 S16G24    30.19F
SHEYENNE NWR     N/A     65  37  35 SW16      29.95S
BUFFALO          N/A     61  35  37 E17         N/A
WYNDMERE       NOT AVBL
 ***** THE ABOVE OBSERVATIONS ARE NON NWS ARE NOT QUALITY
       CONTROLLED AND MAY MIS-REPORT RAIN FOR SNOW...
$$

  *****  WEATHER ACROSS NORTHERN MINNESOTA  *****

CITY           SKY/WX    TMP DP  RH WIND       PRES   REMARKS
FLAG ISLAND    FAIR      54  30  40 SW18G24   30.12F
WARROAD        FAIR      61  39  44 SW17G25   30.15F
ROSEAU         FAIR      61  41  48 SW21G28   30.15S
HALLOCK        FAIR      64  39  39 SW21      30.11F
THF RVR FALLS  FAIR      59  41  51 SW24      30.18F
HALSTAD        NOT AVBL
FOSSTON        FAIR      61  34  36 SW21G31   30.20F
BAUDETTE       FAIR      63  34  33 SW14G26   30.16F
WASKISH        CLOUDY    57  32  38 W9        30.19F
CROOKSTON      FAIR      63  45  51 SW18G25   30.18F
$$
  *****  WEATHER ACROSS CENTRAL AND WEST MINNESOTA  *****

CITY           SKY/WX    TMP DP  RH WIND       PRES   REMARKS
BEMIDJI        FAIR      63  28  26 SW15G21   30.19F
PARK RAPIDS    FAIR      62  32  32 S13G25    30.22F
WADENA         FAIR      61  36  39 SW10      30.23F
DETROIT LAKES  FAIR      61  32  33 S14       30.23F
MOORHEAD       FAIR      63  37  39 S16G23    30.21F
FERGUS FALLS   FAIR      61  37  41 SW15G23   30.20F
ELBOW LAKE     FAIR      62  38  42 SW15      30.25F
MORRIS MN      FAIR      61  39  44 S15       30.24F
STAPLES        FAIR      61  30  31 S10       30.24F
WHEATON        FAIR      61  36  39 S14G20    30.25F
$$
  *****  WEATHER ELSEWHERE ACROSS MINNESOTA  *****

CITY           SKY/WX    TMP DP  RH WIND       PRES   REMARKS
DULUTH         FAIR      60  29  30 W9        30.27F
INTRNTL FALLS  FAIR      62  28  27 S13G20    30.18F
ELY            FAIR      61  18  18 SW12      30.23F
CLOQUET        FAIR      61  25  25 SW7       30.26F
BRAINERD       FAIR      62  31  31 S15       30.26F
HIBBING        FAIR      59  29  31 VRB7      30.24F
ALEXANDRIA     FAIR      63  34  33 SW16      30.26F
SAINT CLOUD    FAIR      62  33  33 S9        30.27F
MINNEAPOLIS    FAIR      61  33  35 VRB7      30.29F
$$

  *****  WEATHER ACROSS SOUTH DAKOTA  *****

CITY           SKY/WX    TMP DP  RH WIND       PRES   REMARKS
SIOUX FALLS    FAIR      62  34  35 E15G21    30.23F
BROOKINGS      FAIR      58  38  47 SE12G20   30.25F
WATERTOWN      FAIR      58  37  45 S14       30.22F
HURON          FAIR      61  36  39 S15G23    30.21
SISSETON         N/A     62  39  42 S15G23    30.21F
ABERDEEN       FAIR      64  33  31 S16G26    30.20F
MITCHELL       FAIR      61  38  42 SE17      30.22F
PIERRE         FAIR      63  38  39 S18G24    30.15F
MOBRIDGE       FAIR      63  39  41 S15       30.12F
RAPID CITY     FAIR      63  37  38 VRB6      30.10F
$$

  *****  SOME WEATHER IN NEARBY STATES *****

CITY           SKY/WX    TMP DP  RH WIND       PRES   REMARKS
GLASGOW MT     FAIR      62  23  22 W10       30.10F
GREAT FALLS MT FAIR      54  15  21 SW6G21    30.12F
CHEYENNE WY    FAIR      60  27  28 N7G20     30.16F
SCOTTSBLUFF NE FAIR      58  42  55 CALM      30.14F
OMAHA NE       PTSUNNY   69  32  25 E13G24    30.17F
DES MOINES IA  PTSUNNY   69  28  21 E12G18    30.18F
DAVENPORT IA   FAIR      66  26  22 E15       30.23F
CHICAGO IL     PTSUNNY   60  26  27 NE13      30.28F
EAU CLAIRE WI  FAIR      63  32  31 SE13      30.29F
LA CROSSE WI   FAIR      64  29  26 E10       30.29F
$$

  *****  SOME NATIONAL WEATHER *****

CITY           SKY/WX    TMP DP  RH WIND       PRES   REMARKS
LA GUARDIA NY  FAIR      62  20  19 S15       30.32F
RALEIGH NC     CLOUDY    69  44  40 VRB7      30.30F
ATLANTA GA     LGT RAIN  60  58  92 SE14G25   30.12F
NEW ORLEANS LA PTSUNNY   81  67  62 W18G26    29.85F
OKLAHOMA CITY  FAIR      61  43  51 N18G28    30.04F
ALBUQUERQUE NM FAIR      68  25  19 SW6       30.13F
SALT LAKE CITY FAIR      75  29  18 N5        30.04F
LOS ANGELES CA FAIR      69  54  58 SW12      29.94F
BOISE ID       FAIR      61  29  29 NW16G28   30.08F
SEATTLE WA     PTSUNNY   53  39  59 N12       30.38F
$$

*** WEATHER ACROSS MANITOBA...SASKATCHEWAN AND ONTARIO ***
                ***ONTARIO***

CITY           SKY/WX    TMP DP  RH WIND       PRES   REMARKS
GERALDTON      PTSUNNY   55  16  21 S14G24    30.25F
THUNDER BAY    PTSUNNY   61  19  20 SE14G20   30.28F
SIOUX LOOKOUT  PTSUNNY   55  30  38 SW12G23   30.14F
TORONTO        SUNNY     61  21  21 SE9       30.37F
BIG TROUT LK   SUNNY     48  32  53 S12G20    29.93F
PICKLE LAKE    PTSUNNY   59  25  27 SW17G33   30.07F
DRYDEN         SUNNY     59  28  31 SW17G26   30.13F
KENORA         PTSUNNY   57  32  38 S20G31    30.12F
$$
                *** MANITOBA***

CITY           SKY/WX    TMP DP  RH WIND       PRES   REMARKS
BRANDON        PTSUNNY   59  39  47 SW17G24   30.05F
DAUPHIN        SUNNY     63  32  31 W28G44    29.94R
ISLAND LAKE    PTSUNNY   52  36  54 SW18G32   29.79S
PILOT MOUND      N/A     59  34  38 W10         N/A
THE PAS        CLOUDY    48  36  61 W18G38    29.66R
THOMPSON       LGT RAIN  41  39  93 S9        29.50F
WINNIPEG       PTSUNNY   61  39  44 SW18G24   30.06S
LYNN LAKE      LGT RAIN  36  36 100 N9        29.49R FOG
CHURCHILL      FRZ RAIN  27  25  93 E30G45    29.78F DRFTSNOWWCI  10
GILLAM         CLOUDY    48  39  71 S13G24    29.63F
$$
                ***SASKATCHEWAN***

CITY           SKY/WX    TMP DP  RH WIND       PRES   REMARKS
ESTEVAN        PTSUNNY   64  27  24 SW20G28   30.08S
KINDERSLEY     MOSUNNY   52  30  43 W26G33    30.05S
LLOYDMINSTER   CLOUDY    43  34  70 W23G31    30.00R
PRINCE ALBERT  PTSUNNY   48  36  61 W24G35    29.87R
REGINA         MOSUNNY   57  28  33 W24G32    30.05S
YORKTON        SUNNY     57  28  33 W28G38    29.96R



USA.gov is the U.S. government's official web portal to all federal, state and local government web resources and services.